• în Republica Moldova
  • Lista ţărilor
  • Pe 7 zile
  • Temperatura apei
  • Hartă satelitară
  • Meteo pe hartă
  • Widget-uri
  • user-avatar
    Intrare

    Meteo pe oră la Ali Bayramli

    Astăzi, 22 Septembrie, Vineri

    Timp Temperatura Precipitaţii Vânt Presiune Umiditate
    00:00 +26°C° 0 mm 2 m/s 757 mmHg 59%
    01:00 +26°C° 0 mm 2 m/s 757 mmHg 60%
    02:00 +26°C° 0 mm 1 m/s 757 mmHg 61%
    03:00 +25°C° 0 mm 1 m/s 757 mmHg 61%
    04:00 +25°C° 0 mm 1 m/s 757 mmHg 62%
    05:00 +25°C° 0 mm 1 m/s 757 mmHg 63%
    06:00 +25°C° 0 mm 1 m/s 757 mmHg 64%
    07:00 +27°C° 0 mm 2 m/s 757 mmHg 58%
    08:00 +29°C° 0 mm 2 m/s 757 mmHg 52%
    09:00 +30°C° 0 mm 2 m/s 757 mmHg 46%
    10:00 +33°C° 0 mm 3 m/s 756 mmHg 42%
    11:00 +34°C° 0 mm 3 m/s 756 mmHg 37%
    12:00 +35°C° 0 mm 4 m/s 756 mmHg 33%
    13:00 +35°C° 0 mm 5 m/s 756 mmHg 33%
    14:00 +35°C° 0 mm 5 m/s 755 mmHg 32%
    15:00 +35°C° 0 mm 6 m/s 755 mmHg 32%
    16:00 +34°C° 0 mm 6 m/s 755 mmHg 37%
    17:00 +32°C° 0 mm 5 m/s 755 mmHg 42%
    18:00 +30°C° 0 mm 5 m/s 755 mmHg 48%
    19:00 +29°C° 0 mm 4 m/s 756 mmHg 52%
    20:00 +29°C° 0 mm 4 m/s 756 mmHg 57%
    21:00 +28°C° 0 mm 3 m/s 756 mmHg 62%
    22:00 +28°C° 0 mm 3 m/s 757 mmHg 63%
    23:00 +27°C° 0 mm 3 m/s 757 mmHg 64%

    Mâine, 23 Septembrie, Sâmbătă

    Timp Temperatura Precipitaţii Vânt Presiune Umiditate
    00:00 +27°C° 0 mm 2 m/s 757 mmHg 64%
    01:00 +26°C° 0 mm 2 m/s 757 mmHg 64%
    02:00 +26°C° 0 mm 2 m/s 757 mmHg 63%
    03:00 +26°C° 0 mm 2 m/s 758 mmHg 63%
    04:00 +26°C° 0 mm 2 m/s 758 mmHg 62%
    05:00 +25°C° 0 mm 2 m/s 758 mmHg 61%
    06:00 +25°C° 0 mm 1 m/s 758 mmHg 60%
    07:00 +27°C° 0 mm 1 m/s 759 mmHg 52%
    08:00 +29°C° 0 mm 2 m/s 759 mmHg 44%
    09:00 +30°C° 0 mm 2 m/s 759 mmHg 36%
    10:00 +32°C° 0 mm 2 m/s 759 mmHg 31%
    11:00 +34°C° 0 mm 3 m/s 759 mmHg 26%
    12:00 +35°C° 0 mm 4 m/s 759 mmHg 21%
    13:00 +35°C° 0 mm 5 m/s 759 mmHg 21%
    14:00 +35°C° 0 mm 6 m/s 759 mmHg 21%
    15:00 +35°C° 0 mm 6 m/s 759 mmHg 21%
    16:00 +34°C° 0 mm 6 m/s 759 mmHg 26%
    17:00 +32°C° 0 mm 6 m/s 759 mmHg 30%
    18:00 +30°C° 0 mm 6 m/s 759 mmHg 35%
    19:00 +29°C° 0 mm 6 m/s 759 mmHg 38%
    20:00 +28°C° 0 mm 6 m/s 760 mmHg 42%
    21:00 +28°C° 0 mm 6 m/s 760 mmHg 45%
    22:00 +27°C° 0 mm 6 m/s 760 mmHg 48%
    23:00 +27°C° 0 mm 6 m/s 760 mmHg 50%

    Poimâine, 24 Septembrie, Duminică

    Timp Temperatura Precipitaţii Vânt Presiune Umiditate
    00:00 +26°C° 0 mm 6 m/s 760 mmHg 53%
    01:00 +24°C° 0 mm 6 m/s 760 mmHg 56%
    02:00 +25°C° 0 mm 5 m/s 761 mmHg 59%
    03:00 +23°C° 0 mm 5 m/s 761 mmHg 62%
    04:00 +23°C° 0 mm 5 m/s 761 mmHg 64%
    05:00 +23°C° 0 mm 4 m/s 761 mmHg 65%
    06:00 +22°C° 0 mm 4 m/s 761 mmHg 67%
    07:00 +25°C° 0 mm 4 m/s 762 mmHg 59%
    08:00 +27°C° 0 mm 4 m/s 762 mmHg 51%
    09:00 +28°C° 0 mm 4 m/s 763 mmHg 44%
    10:00 +29°C° 0 mm 4 m/s 762 mmHg 39%
    11:00 +30°C° 0 mm 4 m/s 762 mmHg 34%
    12:00 +33°C° 0 mm 4 m/s 762 mmHg 30%
    13:00 +33°C° 0 mm 5 m/s 762 mmHg 31%
    14:00 +33°C° 0 mm 6 m/s 762 mmHg 32%
    15:00 +33°C° 0 mm 7 m/s 762 mmHg 33%
    16:00 +30°C° 0 mm 7 m/s 762 mmHg 39%
    17:00 +29°C° 0 mm 7 m/s 762 mmHg 46%
    18:00 +27°C° 0 mm 7 m/s 762 mmHg 52%
    19:00 +27°C° 0 mm 6 m/s 762 mmHg 55%
    20:00 +26°C° 0 mm 6 m/s 762 mmHg 57%
    21:00 +25°C° 0 mm 5 m/s 763 mmHg 60%
    22:00 +25°C° 0 mm 5 m/s 763 mmHg 60%
    23:00 +25°C° 0 mm 4 m/s 763 mmHg 59%

    25 Septembrie, Luni

    Timp Temperatura Precipitaţii Vânt Presiune Umiditate
    00:00 +24°C° 0 mm 3 m/s 762 mmHg 59%
    01:00 +24°C° 0 mm 3 m/s 762 mmHg 61%
    02:00 +24°C° 0 mm 3 m/s 762 mmHg 62%
    03:00 +23°C° 0 mm 2 m/s 762 mmHg 64%
    04:00 +23°C° 0 mm 2 m/s 762 mmHg 64%
    05:00 +23°C° 0 mm 2 m/s 762 mmHg 65%
    06:00 +21°C° 0 mm 2 m/s 763 mmHg 66%
    07:00 +24°C° 0 mm 3 m/s 763 mmHg 59%
    08:00 +26°C° 0 mm 3 m/s 763 mmHg 53%
    09:00 +27°C° 0 mm 3 m/s 763 mmHg 46%
    10:00 +28°C° 0 mm 3 m/s 763 mmHg 42%
    11:00 +29°C° 0 mm 3 m/s 763 mmHg 37%
    12:00 +31°C° 0 mm 3 m/s 762 mmHg 32%
    13:00 +31°C° 0 mm 3 m/s 762 mmHg 31%
    14:00 +33°C° 0 mm 4 m/s 762 mmHg 30%
    15:00 +33°C° 0 mm 5 m/s 762 mmHg 29%
    16:00 +32°C° 0 mm 6 m/s 762 mmHg 33%
    17:00 +29°C° 0 mm 7 m/s 762 mmHg 37%
    18:00 +28°C° 0 mm 9 m/s 762 mmHg 41%
    19:00 +27°C° 0 mm 9 m/s 763 mmHg 43%
    20:00 +27°C° 0 mm 9 m/s 763 mmHg 44%
    21:00 +26°C° 0 mm 9 m/s 763 mmHg 46%
    22:00 +24°C° 0 mm 8 m/s 763 mmHg 47%
    23:00 +24°C° 0 mm 8 m/s 763 mmHg 49%

    26 Septembrie, Marţi

    Timp Temperatura Precipitaţii Vânt Presiune Umiditate
    00:00 +23°C° 0 mm 8 m/s 763 mmHg 50%
    01:00 +23°C° 0 mm 7 m/s 763 mmHg 52%
    02:00 +22°C° 0 mm 7 m/s 763 mmHg 55%
    03:00 +22°C° 0 mm 7 m/s 763 mmHg 57%
    04:00 +21°C° 0 mm 6 m/s 763 mmHg 59%
    05:00 +21°C° 0 mm 6 m/s 763 mmHg 61%
    06:00 +21°C° 0 mm 6 m/s 763 mmHg 64%
    07:00 +22°C° 0 mm 6 m/s 764 mmHg 59%
    08:00 +23°C° 0 mm 6 m/s 764 mmHg 55%
    09:00 +24°C° 0 mm 7 m/s 764 mmHg 51%
    10:00 +26°C° 0 mm 7 m/s 764 mmHg 48%
    11:00 +27°C° 0 mm 7 m/s 764 mmHg 46%
    12:00 +27°C° 0 mm 7 m/s 764 mmHg 43%
    13:00 +27°C° 0 mm 8 m/s 764 mmHg 44%
    14:00 +27°C° 0 mm 8 m/s 763 mmHg 45%
    15:00 +26°C° 0 mm 8 m/s 763 mmHg 45%
    16:00 +24°C° 0 mm 8 m/s 763 mmHg 48%
    17:00 +23°C° 0 mm 7 m/s 764 mmHg 50%
    18:00 +22°C° 0 mm 7 m/s 764 mmHg 53%
    19:00 +22°C° 0 mm 6 m/s 764 mmHg 54%
    20:00 +22°C° 0 mm 6 m/s 764 mmHg 54%
    21:00 +22°C° 0 mm 5 m/s 764 mmHg 55%
    22:00 +22°C° 0 mm 5 m/s 764 mmHg 56%
    23:00 +21°C° 0 mm 4 m/s 764 mmHg 57%

    27 Septembrie, Miercuri

    Timp Temperatura Precipitaţii Vânt Presiune Umiditate
    00:00 +21°C° 0 mm 4 m/s 763 mmHg 57%
    01:00 +21°C° 0 mm 4 m/s 763 mmHg 58%
    02:00 +21°C° 0 mm 3 m/s 763 mmHg 58%
    03:00 +21°C° 0 mm 3 m/s 762 mmHg 59%
    04:00 +21°C° 0 mm 3 m/s 762 mmHg 58%
    05:00 +21°C° 0 mm 3 m/s 762 mmHg 58%
    06:00 +21°C° 0 mm 3 m/s 762 mmHg 58%
    07:00 +21°C° 0 mm 3 m/s 762 mmHg 57%
    08:00 +22°C° 0 mm 3 m/s 762 mmHg 57%
    09:00 +22°C° 0 mm 3 m/s 762 mmHg 56%
    10:00 +24°C° 0 mm 3 m/s 762 mmHg 54%
    11:00 +25°C° 0 mm 3 m/s 761 mmHg 52%
    12:00 +26°C° 0 mm 4 m/s 761 mmHg 50%
    13:00 +26°C° 0 mm 4 m/s 761 mmHg 50%
    14:00 +26°C° 0 mm 5 m/s 761 mmHg 50%
    15:00 +27°C° 0 mm 5 m/s 760 mmHg 49%
    16:00 +26°C° 0 mm 5 m/s 760 mmHg 51%
    17:00 +24°C° 0 mm 6 m/s 761 mmHg 53%
    18:00 +24°C° 0 mm 6 m/s 761 mmHg 55%
    19:00 +24°C° 0 mm 6 m/s 761 mmHg 55%
    20:00 +23°C° 0 mm 7 m/s 762 mmHg 55%
    21:00 +23°C° 0 mm 7 m/s 762 mmHg 56%
    22:00 +23°C° 0 mm 7 m/s 762 mmHg 56%
    23:00 +22°C° 0 mm 7 m/s 762 mmHg 57%
    Arată mai mult